Preview of NWS' New Version of Forecast
This preview is not operational and should not be used for support decisions.

Regional Weather Roundup (RWR)

Issued by Gray - Portland, ME (GYX)

                            
000
ASUS41 KGYX 201910
RWRGYX
WEATHER ROUNDUP FOR MAINE AND NEW HAMPSHIRE
NATIONAL WEATHER SERVICE GRAY ME
300 PM EDT TUE AUG 20 2019

MEZ002-005-006-010-012-015-018-020-021-024-026-027-029-202000-
MAINE
  
CITY           SKY/WX    TMP DP  RH WIND       PRES   REMARKS
PORTLAND       FAIR      83  56  39 S7        30.03F                  
SANFORD        FAIR      84  60  44 S5        30.05S                  
BAR HARBOR     FAIR      81  58  45 VRB7      30.00F                  
WISCASSET      FAIR      84  51  31 VRB6      30.03F                  
ROCKLAND       FAIR      78  60  53 S9        30.02F                  
FRYEBURG       FAIR      84  56  38 CALM      30.05R                  
LEWISTONAUBURN FAIR      80  55  42 NW6       30.05S                  
AUGUSTA        FAIR      80  55  42 MISG      30.04F                  
WATERVILLE     FAIR      79  54  41 CALM      30.01F                  
BANGOR         FAIR      80  53  39 NW8       30.01F                  
GREENVILLE     NOT AVBL                                               
MILLINOCKET    FAIR      80  51  36 W6        30.00F                  
HOULTON        FAIR      80  51  36 W12       29.96F                  
PRESQUE ISLE   FAIR      80  50  34 SW7G21    29.96F                  
FRENCHVILLE    FAIR      77  53  43 SW10      29.94F                  
CARIBOU        FAIR      81  50  33 SW10      29.94F                  
$$

NHZ002-005-008-009-011-012-014-202000-
NEW HAMPSHIRE
  
CITY           SKY/WX    TMP DP  RH WIND       PRES   REMARKS
PORTSMOUTH     MOSUNNY   83  52  34 S10       30.03S                  
ROCHESTER      FAIR      86  57  37 VRB3      30.04S                  
NASHUA         FAIR      87  55  33 W7        30.05S                  
MANCHESTER     FAIR      87  51  28 SW7       30.03S                  
CONCORD        FAIR      84  51  31 VRB5      30.05S                  
LACONIA        FAIR      82  54  37 SW5       30.06S                  
PLYMOUTH       FAIR      82  50  33 N3        30.05S                  
BERLIN         NOT AVBL                                               
WHITEFIELD     FAIR      81  53  37 NW7       30.07S                  
JAFFREY        FAIR      82  52  35 SW8       30.10S                  
KEENE          FAIR      83  55  38 VRB5      30.07S                  
LEBANON        FAIR      85  57  38 S8        30.05F                  
MT WASHINGTON  MOSUNNY   61  41  48 W9          N/A                   
$$

VTZ005-007-008-202000-
VERMONT
  
CITY           SKY/WX    TMP DP  RH WIND       PRES   REMARKS
ST JOHNSBURY     N/A     79  53  40 MISG      30.04S                  
MONTPELIER     FAIR      79  55  43 NW6       30.12R                  
BURLINGTON     FAIR      84  52  33 S8        30.05S                  
$$

MAZ007-012-024-CTZ003-RIZ002-NYZ038-NYZ072-202000-
SOUTHERN NEW ENGLAND AND NY
  
CITY           SKY/WX    TMP DP  RH WIND       PRES   REMARKS
BOSTON         FAIR      82  61  48 E10       30.05S                  
WORCESTER      FAIR      80  55  42 SW8       30.10S                  
NANTUCKET      FAIR      77  65  66 S6        30.07S                  
PROVIDENCE     FAIR      87  55  33 VRB5      30.06S                  
HARTFORD       FAIR      88  54  31 NW9G20    30.06F                  
ALBANY         FAIR      85  58  39 VRB3      30.07F                  
NEW YORK CITY  PTSUNNY   88  63  43 S13G20    30.07S                  
$$

ANZ081-ANZ082-ANZ150-NHZ014-MEZ023>029-202000-
COASTAL MARINE OBSERVATIONS
  
STATION/POSITION TIME  TEMP    WIND        PRES    WAVE
                       AIR SEA DIR/SP/G            HT/PER
                 (UTC) (F)     (DEG/KT/KT) (MB)    (FT/S)
MATINICUS ROCK   1850   74                 1016.6F
ISLE OF SHOALS   1800   75     140/  5/  5 1017.1F
JEFFREYS LEDGE   1838      73                N/A     2/ 8
CASHES LEDGE BUO 1850   67 65  300/  4/  4 1017.3F   2/ 8
GEORGES BANK BUO 1840   70 71  270/  6/  8 1017.5F
$$

.............KEY..............
   WCI - WIND CHILL
   TC  - TEMPERATURE IN CELSIUS
   VSB - VISIBILITY IN MILES
   HX  - HEAT INDEX
   FAIR- INDICATES FEW OR NO CLOUDS BELOW 12,000 FT, WITH NO 
         SIGNIFICANT WEATHER AND/OR OBSTRUCTIONS TO VISIBILITY.